ABS268 FOOG-FOOL

Flight info

Callsign ABS268
Flight time 0h 30m
Altitude 11000
Route SEPAS DCT RATOS DCT BIGUN DCT LN
Aircraft AT76/M-SDFGIRY/S

Departure

Time 2026-04-21 21:16
Airport Port Gentil International Airport (FOOG)

Arrival

Time 2026-04-21 21:46
Airport Libreville Leon M'ba International Airport (FOOL)
Time Latitude Longitude Altitude Speed Heading
2026-04-21 20:40 -0.71876 8.75321 18 ft 0 kts 151°
2026-04-21 21:09 -0.71877 8.75321 18 ft 0 kts 160°
2026-04-21 21:09 -0.71880 8.75320 20 ft 0 kts 194°
2026-04-21 21:10 -0.71881 8.75319 20 ft 0 kts 205°
2026-04-21 21:10 -0.71881 8.75318 20 ft 1 kts 218°
2026-04-21 21:10 -0.71885 8.75311 19 ft 2 kts 236°
2026-04-21 21:10 -0.71893 8.75296 18 ft 3 kts 248°
2026-04-21 21:11 -0.71903 8.75269 19 ft 4 kts 236°
2026-04-21 21:11 -0.71930 8.75253 18 ft 5 kts 203°
2026-04-21 21:11 -0.71952 8.75234 18 ft 4 kts 241°
2026-04-21 21:11 -0.71952 8.75207 19 ft 5 kts 287°
2026-04-21 21:12 -0.71938 8.75173 19 ft 6 kts 294°
2026-04-21 21:12 -0.71943 8.75134 22 ft 6 kts 233°
2026-04-21 21:12 -0.71975 8.75112 20 ft 6 kts 207°
2026-04-21 21:12 -0.72013 8.75096 20 ft 6 kts 202°
2026-04-21 21:13 -0.72079 8.75070 20 ft 12 kts 201°
2026-04-21 21:13 -0.72150 8.75041 19 ft 10 kts 202°
2026-04-21 21:13 -0.72209 8.75017 19 ft 8 kts 202°
2026-04-21 21:13 -0.72257 8.74998 18 ft 7 kts 202°
2026-04-21 21:14 -0.72300 8.74980 18 ft 7 kts 202°
2026-04-21 21:14 -0.72341 8.74963 20 ft 6 kts 202°
2026-04-21 21:14 -0.72426 8.74929 18 ft 14 kts 201°
2026-04-21 21:14 -0.72497 8.74888 17 ft 10 kts 229°
2026-04-21 21:15 -0.72543 8.74873 17 ft 6 kts 123°
2026-04-21 21:15 -0.72513 8.74895 17 ft 8 kts 18°
2026-04-21 21:15 -0.72418 8.74932 20 ft 35 kts 22°
2026-04-21 21:15 -0.71994 8.75103 20 ft 95 kts 22°
2026-04-21 21:16 -0.71218 8.75418 35 ft 141 kts 20°
2026-04-21 21:16 -0.70258 8.75765 346 ft 153 kts 19°
2026-04-21 21:16 -0.69234 8.76122 746 ft 160 kts 18°
2026-04-21 21:16 -0.68160 8.76494 1161 ft 164 kts 18°
2026-04-21 21:17 -0.67097 8.76853 1751 ft 156 kts 22°
2026-04-21 21:17 -0.66099 8.77356 2086 ft 170 kts 29°
2026-04-21 21:17 -0.65040 8.77965 2424 ft 179 kts 31°
2026-04-21 21:17 -0.63923 8.78636 2683 ft 191 kts 31°
2026-04-21 21:18 -0.62782 8.79296 3089 ft 189 kts 30°
2026-04-21 21:18 -0.61638 8.79942 3434 ft 189 kts 29°
2026-04-21 21:18 -0.60492 8.80582 3766 ft 188 kts 29°
2026-04-21 21:18 -0.59341 8.81221 4112 ft 188 kts 29°
2026-04-21 21:19 -0.58584 8.81639 4336 ft 188 kts 29°
2026-04-21 21:19 -0.57054 8.82488 4784 ft 188 kts 29°
2026-04-21 21:19 -0.55910 8.83119 5102 ft 188 kts 30°
2026-04-21 21:19 -0.55155 8.83539 5306 ft 188 kts 30°
2026-04-21 21:20 -0.54013 8.84170 5614 ft 188 kts 30°
2026-04-21 21:20 -0.52869 8.84805 5925 ft 188 kts 31°
2026-04-21 21:20 -0.51726 8.85439 6230 ft 188 kts 31°
2026-04-21 21:20 -0.50581 8.86072 6524 ft 188 kts 31°
2026-04-21 21:21 -0.49436 8.86706 6795 ft 189 kts 31°
2026-04-21 21:21 -0.48284 8.87346 7058 ft 190 kts 31°
2026-04-21 21:21 -0.47128 8.87986 7331 ft 190 kts 31°
2026-04-21 21:21 -0.45968 8.88628 7601 ft 191 kts 31°
2026-04-21 21:22 -0.44806 8.89270 7869 ft 191 kts 31°
2026-04-21 21:22 -0.43638 8.89915 8138 ft 192 kts 31°
2026-04-21 21:22 -0.42466 8.90563 8379 ft 193 kts 31°
2026-04-21 21:22 -0.41292 8.91211 8640 ft 193 kts 31°
2026-04-21 21:23 -0.40117 8.91864 8897 ft 194 kts 31°
2026-04-21 21:23 -0.38938 8.92517 9150 ft 194 kts 32°
2026-04-21 21:23 -0.37755 8.93172 9404 ft 195 kts 32°
2026-04-21 21:23 -0.36569 8.93828 9660 ft 195 kts 32°
2026-04-21 21:24 -0.35380 8.94486 9891 ft 195 kts 32°
2026-04-21 21:24 -0.34189 8.95143 10103 ft 196 kts 32°
2026-04-21 21:24 -0.32998 8.95803 10323 ft 196 kts 32°
2026-04-21 21:24 -0.31801 8.96464 10529 ft 197 kts 32°
2026-04-21 21:25 -0.30601 8.97128 10730 ft 199 kts 32°
2026-04-21 21:25 -0.29371 8.97810 10817 ft 206 kts 32°
2026-04-21 21:25 -0.28092 8.98519 10857 ft 215 kts 32°
2026-04-21 21:25 -0.26762 8.99257 10877 ft 222 kts 32°
2026-04-21 21:26 -0.25389 9.00016 10878 ft 228 kts 32°
2026-04-21 21:26 -0.23982 9.00795 10888 ft 233 kts 32°
2026-04-21 21:26 -0.22550 9.01588 10881 ft 237 kts 32°
2026-04-21 21:26 -0.21094 9.02394 10890 ft 241 kts 32°
2026-04-21 21:27 -0.19642 9.03198 10890 ft 243 kts 32°
2026-04-21 21:27 -0.18157 9.04020 10893 ft 245 kts 32°
2026-04-21 21:27 -0.16664 9.04848 10888 ft 246 kts 32°
2026-04-21 21:27 -0.15163 9.05677 10885 ft 247 kts 32°
2026-04-21 21:28 -0.13658 9.06510 10891 ft 248 kts 32°
2026-04-21 21:28 -0.12146 9.07347 10884 ft 248 kts 32°
2026-04-21 21:28 -0.09120 9.09022 10877 ft 249 kts 32°
2026-04-21 21:29 -0.07604 9.09862 10876 ft 249 kts 32°
2026-04-21 21:29 -0.06086 9.10702 10882 ft 249 kts 32°
2026-04-21 21:29 -0.04568 9.11544 10882 ft 250 kts 32°
2026-04-21 21:29 -0.03050 9.12385 10875 ft 250 kts 32°
2026-04-21 21:30 -0.01531 9.13224 10872 ft 250 kts 32°
2026-04-21 21:30 -0.00012 9.14066 10867 ft 249 kts 32°
2026-04-21 21:30 0.01481 9.14892 10863 ft 248 kts 32°
2026-04-21 21:30 0.02986 9.15725 10875 ft 247 kts 32°
2026-04-21 21:31 0.04487 9.16556 10866 ft 246 kts 32°
2026-04-21 21:31 0.05983 9.17384 10876 ft 246 kts 32°
2026-04-21 21:31 0.07479 9.18210 10871 ft 245 kts 32°
2026-04-21 21:31 0.08972 9.19035 10858 ft 245 kts 32°
2026-04-21 21:32 0.10504 9.19769 10870 ft 246 kts 18°
2026-04-21 21:32 0.12210 9.19961 10866 ft 248 kts
2026-04-21 21:32 0.13936 9.20011 10865 ft 249 kts
2026-04-21 21:32 0.15666 9.20058 10858 ft 249 kts
2026-04-21 21:33 0.17396 9.20143 10858 ft 249 kts
2026-04-21 21:33 0.19125 9.20268 10863 ft 249 kts
2026-04-21 21:33 0.20857 9.20397 10865 ft 250 kts
2026-04-21 21:33 0.22591 9.20521 10864 ft 250 kts
2026-04-21 21:34 0.24327 9.20645 10862 ft 250 kts
2026-04-21 21:34 0.26066 9.20769 10863 ft 250 kts
2026-04-21 21:34 0.27802 9.20892 10862 ft 250 kts
2026-04-21 21:34 0.29543 9.21016 10848 ft 251 kts
2026-04-21 21:35 0.31281 9.21138 10855 ft 251 kts
2026-04-21 21:35 0.33020 9.21263 10849 ft 251 kts
2026-04-21 21:35 0.34762 9.21386 10858 ft 251 kts
2026-04-21 21:35 0.36518 9.21513 10604 ft 255 kts
2026-04-21 21:36 0.38293 9.21654 10271 ft 257 kts
2026-04-21 21:36 0.40079 9.21797 9931 ft 258 kts
2026-04-21 21:36 0.41847 9.21940 9592 ft 259 kts
2026-04-21 21:36 0.43635 9.22073 9218 ft 255 kts
2026-04-21 21:37 0.45385 9.22198 8849 ft 250 kts
2026-04-21 21:37 0.47106 9.22317 8453 ft 242 kts
2026-04-21 21:37 0.48726 9.22427 8064 ft 226 kts
2026-04-21 21:37 0.50284 9.22529 7678 ft 226 kts
2026-04-21 21:38 0.51861 9.22629 7302 ft 228 kts
2026-04-21 21:38 0.53455 9.22731 6924 ft 230 kts
2026-04-21 21:38 0.55059 9.22830 6554 ft 231 kts
2026-04-21 21:38 0.56668 9.22939 6186 ft 232 kts
2026-04-21 21:39 0.58282 9.23052 5799 ft 232 kts
2026-04-21 21:39 0.59756 9.23515 5405 ft 217 kts 38°
2026-04-21 21:39 0.60740 9.24567 5020 ft 203 kts 54°
2026-04-21 21:39 0.61489 9.25732 4641 ft 197 kts 62°
2026-04-21 21:40 0.62101 9.26944 4248 ft 194 kts 65°
2026-04-21 21:40 0.62653 9.28139 3870 ft 186 kts 66°
2026-04-21 21:40 0.63192 9.29304 3475 ft 183 kts 66°
2026-04-21 21:40 0.63715 9.30446 3091 ft 180 kts 68°
2026-04-21 21:41 0.64020 9.31635 2689 ft 175 kts 92°
2026-04-21 21:41 0.63520 9.32691 2309 ft 172 kts 141°
2026-04-21 21:41 0.62533 9.33299 2103 ft 163 kts 154°
2026-04-21 21:41 0.61538 9.33780 2039 ft 153 kts 157°
2026-04-21 21:42 0.60617 9.34195 1998 ft 136 kts 159°
2026-04-21 21:42 0.59781 9.34547 1993 ft 128 kts 160°
2026-04-21 21:42 0.58970 9.34870 1978 ft 128 kts 160°
2026-04-21 21:42 0.58152 9.35212 1978 ft 127 kts 158°
2026-04-21 21:43 0.57356 9.35589 1983 ft 127 kts 155°
2026-04-21 21:43 0.56570 9.35994 1954 ft 129 kts 154°
2026-04-21 21:43 0.55753 9.36417 1780 ft 133 kts 155°
2026-04-21 21:43 0.54922 9.36833 1616 ft 134 kts 156°
2026-04-21 21:44 0.54082 9.37238 1436 ft 134 kts 156°
2026-04-21 21:44 0.53236 9.37640 1276 ft 135 kts 156°
2026-04-21 21:44 0.52393 9.38052 1088 ft 134 kts 156°
2026-04-21 21:44 0.51565 9.38463 939 ft 132 kts 155°
2026-04-21 21:45 0.50748 9.38873 808 ft 131 kts 154°
2026-04-21 21:45 0.49923 9.39277 650 ft 133 kts 154°
2026-04-21 21:45 0.49089 9.39681 513 ft 133 kts 154°
2026-04-21 21:45 0.48252 9.40077 346 ft 135 kts 152°
2026-04-21 21:46 0.47411 9.40491 152 ft 136 kts 152°
2026-04-21 21:46 0.46575 9.40896 42 ft 126 kts 153°
2026-04-21 21:46 0.46039 9.41149 33 ft 47 kts 157°
2026-04-21 21:46 0.45873 9.41221 33 ft 11 kts 179°
2026-04-21 21:47 0.45812 9.41173 33 ft 12 kts 242°
2026-04-21 21:47 0.45822 9.41101 33 ft 11 kts 321°
2026-04-21 21:47 0.45885 9.41067 33 ft 10 kts 334°
2026-04-21 21:47 0.45929 9.41046 34 ft 0 kts 334°
2026-04-21 21:48 0.45932 9.41041 34 ft 1 kts 295°
2026-04-21 21:48 0.45929 9.41035 34 ft 2 kts 253°
2026-04-21 21:48 0.45915 9.41009 34 ft 6 kts 240°
2026-04-21 21:48 0.45907 9.40994 34 ft 0 kts 244°
2026-04-21 21:49 0.45901 9.40994 34 ft 1 kts 174°
2026-04-21 21:49 0.45900 9.40997 34 ft 0 kts 125°
2026-04-21 21:49 0.45901 9.41002 34 ft 1 kts 83°
2026-04-21 21:50 0.45904 9.41012 34 ft 2 kts 84°
2026-04-21 21:50 0.45903 9.41016 34 ft 0 kts 96°
2026-04-21 21:50 0.45903 9.41018 34 ft 0 kts 99°